Main page
METAR-TAF:

METAR-TAF

Airports :

Francisco de Orellana Airport

Puerto Francisco de Orellana, Ecuador

latitude: 00-27-46S, longitude: 076-59-12W, elevation: 254 m

Current weather observation

The report was made 1 hour and 49 minutes ago, at 21:00 UTC
Wind 6 kt from the South/Southeast
Temperature 27°C
Humidity 79%
Pressure 1007 hPa
Visibility 10 km or more
Scattered clouds at a height of 2000 ft
Broken clouds at a height of 10000 ft

METAR: SECO 042100Z 16006KT 9999 SCT020 BKN100 27/23 Q1007 RMK A2975

Time: 17:49 (22:49 UTC)


TAF: missing

Weather observations and forecasts of more than 4000 airports (METAR and TAF reports).

The available stations are represented by yellow and red dots on the map.

Hover mouse over dot to see the name of the station.

Then click to see weather observations and forecasts.

To change the map : click on the green buttons with a black cross to zoom in, on the green button with a dash to zoom out, or on the green arrows for adjacent maps.


METAR-TAF: